Location: Wien
(48.2082°N, 16.3738°E)
Time: 10:58:32
(UTC+01:00)

Explorer 7 - All Passes

Search period start: 25 February 2024 00:00
Search period end: 06 March 2024 00:00
Orbit: 470 x 632 km, 50.3° (Epoch: 25 February)

Date Brightness Start Highest point End Pass type
(mag) Time Alt. Az. Time Alt. Az. Time Alt. Az.
25 Feb - 07:21:52 10° S 07:24:18 17° SE 07:26:46 10° E daylight
25 Feb - 08:59:51 10° WSW 09:03:34 68° SSE 09:07:24 10° ENE daylight
25 Feb - 10:39:40 10° W 10:43:27 63° N 10:47:25 10° E daylight
25 Feb - 12:19:33 10° WNW 12:23:28 87° NNE 12:27:37 10° ESE daylight
25 Feb - 13:59:29 10° W 14:03:04 31° SW 14:06:49 10° SSE daylight
26 Feb - 07:16:04 10° SSW 07:18:57 22° SE 07:21:54 10° E daylight
26 Feb - 08:54:37 10° WSW 08:58:20 82° SSE 09:02:13 10° ENE daylight
26 Feb - 10:34:32 10° W 10:38:18 62° N 10:42:16 10° E daylight
26 Feb - 12:14:21 10° WNW 12:18:16 81° SSW 12:22:24 10° ESE daylight
26 Feb - 13:54:28 10° W 13:57:46 24° SW 14:01:11 10° SSE daylight
27 Feb - 07:10:26 10° SSW 07:13:37 28° SE 07:16:53 10° E daylight
27 Feb - 08:49:25 10° WSW 08:53:08 86° NNW 08:57:00 10° ENE daylight
27 Feb - 10:29:21 10° WNW 10:33:08 63° N 10:37:05 10° E daylight
27 Feb - 12:09:09 10° WNW 12:13:02 68° SSW 12:17:07 10° ESE daylight
27 Feb - 13:49:33 10° W 13:52:25 19° SW 13:55:23 10° S daylight
28 Feb - 07:04:54 10° SW 07:08:18 36° SSE 07:11:46 10° E daylight
28 Feb - 08:44:13 10° W 08:47:55 76° NNW 08:51:47 10° ENE daylight
28 Feb - 10:24:10 10° WNW 10:27:56 66° N 10:31:54 10° E daylight
28 Feb - 12:03:57 10° WNW 12:07:46 56° SSW 12:11:47 10° SE daylight
28 Feb - 13:44:49 10° WSW 13:47:02 14° SW 13:49:18 10° S daylight
29 Feb - 06:59:28 10° SW 07:02:59 46° SSE 07:06:35 10° ENE daylight
29 Feb - 08:39:01 10° W 08:42:43 69° N 08:46:33 10° ENE daylight
29 Feb - 10:18:57 10° WNW 10:22:43 71° N 10:26:42 10° E daylight
29 Feb - 11:58:45 10° WNW 12:02:29 44° SSW 12:06:22 10° SE daylight
29 Feb - 13:40:45 10° WSW 13:41:36 11° SW 13:42:28 10° SW daylight
01 Mar - 05:16:40 10° SSE 05:18:31 13° SE 05:20:22 10° ESE visible
01 Mar - 06:54:04 10° SW 06:57:40 58° SSE 07:01:22 10° ENE daylight
01 Mar - 08:33:48 10° W 08:37:29 64° N 08:41:19 10° ENE daylight
01 Mar - 10:13:42 10° WNW 10:17:29 79° NNE 10:21:28 10° ESE daylight
01 Mar - 11:53:35 10° W 11:57:08 35° SSW 12:00:51 10° SSE daylight
02 Mar - 05:10:33 10° S 05:13:05 18° SE 05:15:37 10° E visible
02 Mar - 06:48:43 10° WSW 06:52:22 72° SSE 06:56:07 10° ENE daylight
02 Mar - 08:28:35 10° W 08:32:15 62° N 08:36:04 10° E daylight
02 Mar - 10:08:26 10° WNW 10:12:14 90° NE 10:16:11 10° ESE daylight
02 Mar - 11:48:26 10° W 11:51:46 28° SW 11:55:14 10° SSE daylight
03 Mar - 05:04:42 10° SSW 05:07:39 23° SE 05:10:38 10° E visible
03 Mar - 06:43:24 10° WSW 06:47:05 85° SSE 06:50:50 10° ENE daylight
03 Mar - 08:23:20 10° W 08:27:01 61° N 08:30:49 10° E daylight
03 Mar - 10:03:10 10° WNW 10:06:56 78° SSW 10:10:52 10° ESE daylight
03 Mar - 11:43:22 10° W 11:46:22 22° SW 11:49:28 10° SSE daylight
04 Mar - 04:59:01 10° SSW 05:02:15 30° SE 05:05:30 10° E visible
04 Mar - 06:38:06 10° WSW 06:41:47 83° NNW 06:45:32 10° ENE daylight
04 Mar - 08:18:04 10° WNW 08:21:46 63° N 08:25:33 10° E daylight
04 Mar - 09:57:52 10° WNW 10:01:37 64° SSW 10:05:30 10° ESE daylight
04 Mar - 11:38:26 10° W 11:40:55 17° SW 11:43:29 10° S daylight
05 Mar - 04:53:25 10° SW 04:56:50 38° SSE 05:00:17 10° E visible
05 Mar - 06:32:49 10° W 06:36:29 73° NNW 06:40:13 10° ENE daylight
05 Mar - 08:12:47 10° WNW 08:16:28 66° N 08:20:16 10° E daylight
05 Mar - 09:52:35 10° WNW 09:56:15 51° SSW 10:00:03 10° SE daylight
05 Mar - 11:33:46 10° WSW 11:35:26 12° SW 11:37:07 10° SSW daylight
